#timestamp,LO_Frequency,Hit,StdDev 
1627934415.1,286046997.0,P
1627934435.9,286046997.3,Y
1627934455.7,286047000.9,P
1627934475.6,286047001.0,N
1627934495.4,286047000.5,N
1627934515.2,286047000.0,N
1627934535.1,286046999.7,N
1627934536.0,286046999.7,N
1627934555.8,286047000.3,N
1627934575.6,286046999.8,N
1627934595.5,286047000.0,N
1627934615.3,286047000.1,N
1627934635.2,286047000.3,N
1627934655.9,286047001.0,N
1627934675.7,286047002.4,N
1627934695.6,286047001.9,N
1627934715.4,286047001.5,N
1627934735.2,286047002.2,N
1627934755.1,286047002.2,N
1627934756.0,286047002.2,N
1627934775.8,286047002.3,N
1627934795.7,286047002.2,N
1627934815.5,286047002.6,N
1627934835.3,286047002.7,N
1627934855.2,286047002.6,N
1627934875.9,286047002.2,N
1627934895.7,286047002.5,N
1627934915.6,286047001.8,N
1627934935.4,286047002.1,N
1627934955.3,286047004.1,Y
1627934975.1,286047002.6,P
1627934995.8,286047002.6,P
1627935015.7,286047001.9,N
1627935035.5,286047001.6,N
1627935055.4,286047004.3,Y
1627935075.2,286046999.8,P
1627935095.0,286047001.0,N
1627935095.9,286047001.0,N
1627935115.8,286047000.1,N
1627935135.6,286047000.1,N
1627935155.4,286047002.4,Y
1627935175.3,286047000.4,P
1627935195.1,286047011.9,P
1627935215.9,286047002.8,N
1627935235.7,286047000.3,N
1627935255.5,286046998.3,N
1627935275.4,286046998.3,N
1627935295.2,286046999.0,N
1627935315.0,286046998.5,N
1627935316.0,286046998.5,N
1627935335.8,286047001.1,N
1627935355.6,286047001.0,N
1627935375.5,286047000.6,N
1627935395.3,286046998.3,N
1627935415.1,286046998.8,N
1627935435.9,286046998.4,N
1627935455.7,286046998.9,N
1627935475.6,286046999.0,N
1627935495.4,286047002.7,N
1627935515.2,286047002.6,N
1627935535.1,286047000.9,N
1627935536.0,286047000.9,N
1627935555.8,286047002.1,N
1627935575.6,286047001.4,N
1627935595.5,286047002.0,N
1627935615.3,286047001.5,N
1627935635.1,286047002.3,N
1627935655.9,286047000.0,N
1627935675.7,286047000.6,N
1627935695.6,286047000.1,N
1627935715.4,286047000.1,N
1627935735.2,286047001.0,N
1627935755.1,286047000.2,N
1627935756.0,286047000.2,N
1627935775.8,286046998.4,N
1627935795.6,286046998.1,N
1627935815.5,286047000.9,N
1627935835.3,286047002.7,N
1627935855.2,286047002.7,N
1627935875.9,286047002.7,N
1627935895.7,286047002.7,N
1627935915.6,286046999.0,N
1627935935.4,286047000.9,N
1627935955.2,286047001.2,N
1627935975.1,286046998.5,N
1627935976.0,286046998.5,N
1627935995.8,286047000.8,N
1627936015.7,286046998.7,N
1627936035.5,286046998.3,N
1627936055.3,286046997.0,N
1627936075.2,286046996.8,N
1627936095.0,286046996.5,N
1627936095.9,286046996.5,N
1627936115.8,286046999.4,N
1627936135.6,286046998.9,N
1627936155.4,286047000.7,N
1627936175.3,286047000.4,N
1627936195.1,286047000.0,N
1627936215.9,286047001.3,N
1627936235.7,286047001.7,N
1627936255.5,286047004.3,N
1627936275.4,286047004.3,N
1627936295.2,286047005.5,N
1627936315.0,286047005.5,N
1627936315.9,286047005.5,N
1627936335.8,286047005.9,N
1627936355.6,286047005.8,N
1627936375.4,286047007.0,N
1627936395.3,286047006.3,N
1627936415.1,286047006.5,N
1627936435.9,286047006.7,N
1627936455.7,286047007.3,N
1627936475.5,286047007.1,N
1627936495.4,286047003.6,N
1627936515.2,286047005.9,N
1627936535.0,286047005.0,N
1627936535.9,286047005.0,N
1627936555.8,286047006.8,N
1627936575.6,286047004.7,N
1627936595.5,286047005.7,N
1627936615.3,286047007.2,N
1627936635.1,286047008.8,N
1627936655.9,286047007.2,N
1627936675.7,286047007.3,N
1627936695.5,286047007.2,N
1627936715.4,286047007.3,Y
1627936735.2,286047001.8,P
1627936755.1,286047003.6,N
1627936756.0,286047003.6,N
1627936775.8,286047003.3,N
1627936795.6,286047003.0,N
1627936815.5,286047005.4,Y
1627936835.3,286047011.9,P
1627936855.2,286047004.3,N
1627936875.9,286047004.2,N
1627936895.7,286047004.2,N
1627936915.6,286047004.4,N
1627936935.4,286047001.8,N
1627936955.2,286047004.4,N
1627936975.1,286047001.3,N
1627936976.0,286047001.3,N
1627936995.8,286047001.6,N
1627937015.6,286047001.3,N
1627937035.5,286047003.4,N
1627937055.3,286047001.3,N
1627937075.2,286047001.3,N
1627937095.9,286047001.3,N
1627937115.8,286047001.4,N
1627937135.6,286047004.0,N
1627937155.4,286047001.4,N
1627937175.3,286047001.4,N
1627937195.1,286047002.2,N
1627937215.8,286046999.7,N
1627937235.7,286046999.8,N
1627937255.5,286047000.1,N
1627937275.4,286046999.8,N
1627937295.2,286047002.2,N
1627937315.0,286047000.1,N
1627937315.9,286047000.1,N
1627937335.8,286047000.1,N
1627937355.6,286047000.3,N
1627937375.5,286046999.7,N
1627937395.3,286047000.4,N
1627937415.1,286047000.7,N
1627937435.9,286046998.9,N
1627937455.7,286047001.2,N
1627937475.5,286046999.4,N
1627937495.4,286046999.4,N
1627937515.2,286046997.2,N
1627937535.1,286046996.5,N
1627937536.0,286046996.5,N
1627937555.8,286046999.6,N
1627937575.6,286046997.2,N
1627937595.5,286046996.1,N
1627937615.3,286046993.4,Y
1627937635.1,286046993.5,P
1627937655.9,286046994.5,N
1627937675.7,286046991.7,N
1627937695.6,286046993.1,N
1627937715.4,286046992.5,N
1627937735.2,286046992.3,N
1627937755.1,286046991.9,Y
1627937756.0,286046991.9,P
1627937775.8,286047001.2,N
1627937795.6,286046999.0,N
1627937815.5,286046996.7,N
1627937835.3,286046997.6,N
1627937855.2,286046997.4,N
1627937875.9,286046996.6,N
1627937895.7,286046997.2,N
1627937915.6,286046996.7,N
1627937935.4,286046999.4,N
1627937955.2,286047000.8,N
1627937975.1,286047000.8,N
1627937976.0,286047000.8,N
1627937995.8,286046998.5,N
